Columbus, OH

9:41 AM EST on February 28, 2017 (GMT -0500)
Rickenbacker International

Weather History for KLCK - February, 2013

Change the Weather History Date:

Tuesday, February 19, 2013

  Actual Average Record
Temperature  
Mean Temperature 36 °F -  
Max Temperature 47 °F 41 °F 59 °F (2004)
Min Temperature 25 °F 26 °F -7 °F (2015)
Degree Days  
Heating Degree Days 29    
Moisture  
Dew Point 27 °F    
Average Humidity 72    
Maximum Humidity 90    
Minimum Humidity 59    
Precipitation  
Precipitation 0.00 in - - ()
Sea Level Pressure  
Sea Level Pressure 29.84 in    
Wind  
Wind Speed 18 mph (WSW)    
Max Wind Speed 32 mph    
Max Gust Speed 39 mph    
Visibility 9 miles    
Events Rain , Snow    
Averages and records for this station are not official NWS values.
T = Trace of Precipitation, MM = Missing Value Source: NWS Daily Summary

Daily Weather History Graph

Daily Weather History Graph

Search for Another Location

Airport or City:

Trip Planner

Search our weather history database for the weather conditions in past years. The results will help you decide how hot, cold, wet, or windy it might be!

Date:

Astronomy

Feb. 19, 2013 Rise Set
Actual Time 7:18 AM EST 6:12 PM EST
Civil Twilight 6:51 AM EST 6:40 PM EST
Nautical Twilight 6:19 AM EST 7:11 PM EST
Astronomical Twilight 5:48 AM EST 7:43 PM EST
Moon 12:43 PM EST (2/19) 2:49 AM EST (2/19)
Length of Visible Light 11h 49m
Length of Day
10h 54m
Waxing Gibbous, 67% of the Moon is Illuminated
Feb 19
Waxing Gibbous
Feb 25
Full
Mar 4
Last Quarter
Mar 11
New
Mar 19
First Quarter

Hourly Weather History & Observations

Time (EST) Temp. Windchill Dew Point Humidity Pressure Visibility Wind Dir Wind Speed Gust Speed Precip Events Conditions
12:15 AM 47.3 °F - 35.6 °F 64% 29.77 in 10.0 mi South 10.4 mph - N/A Rain Light Rain
12:35 AM 46.4 °F 38.7 °F 36.0 °F 67% 29.77 in 10.0 mi South 20.7 mph 35.7 mph N/A Rain Light Rain
12:55 AM 47.1 °F - 36.0 °F 65% 29.78 in 10.0 mi SSW 25.3 mph 35.7 mph N/A Rain Rain
1:15 AM 45.5 °F 38.1 °F 37.2 °F 73% 29.78 in 10.0 mi South 18.4 mph 25.3 mph N/A Rain Rain
1:35 AM 44.8 °F 37.7 °F 37.6 °F 76% 29.76 in 10.0 mi South 16.1 mph - N/A Rain Light Rain
1:55 AM 44.4 °F 36.9 °F 37.8 °F 77% 29.74 in 10.0 mi South 17.3 mph 21.9 mph N/A Rain Light Rain
2:15 AM 44.2 °F 35.4 °F 37.8 °F 78% 29.73 in 10.0 mi South 23.0 mph 31.1 mph N/A Rain Light Rain
2:35 AM 44.6 °F 36.1 °F 37.4 °F 76% 29.72 in 10.0 mi South 21.9 mph 27.6 mph N/A   Overcast
2:55 AM 44.4 °F 36.1 °F 37.4 °F 76% 29.71 in 10.0 mi South 20.7 mph 27.6 mph N/A Rain Light Rain
3:15 AM 43.7 °F 35.2 °F 37.4 °F 78% 29.70 in 10.0 mi South 20.7 mph 24.2 mph N/A   Overcast
3:35 AM 43.3 °F 35.5 °F 37.2 °F 79% 29.69 in 10.0 mi South 17.3 mph - N/A   Overcast
3:55 AM 43.2 °F 35.9 °F 37.0 °F 79% 29.68 in 10.0 mi South 15.0 mph 20.7 mph N/A   Overcast
4:15 AM 43.0 °F 35.1 °F 37.2 °F 80% 29.68 in 10.0 mi South 17.3 mph - N/A   Drizzle
4:35 AM 43.0 °F 34.8 °F 37.4 °F 81% 29.67 in 10.0 mi South 18.4 mph - N/A Rain Light Rain
4:55 AM 43.5 °F 34.7 °F 37.6 °F 80% 29.67 in 10.0 mi South 21.9 mph 25.3 mph N/A Rain Light Rain
5:15 AM 44.2 °F 35.9 °F 37.6 °F 77% 29.67 in 10.0 mi South 20.7 mph 24.2 mph N/A   Overcast
5:35 AM 45.0 °F 36.6 °F 37.4 °F 75% 29.66 in 10.0 mi SSW 21.9 mph 34.5 mph N/A   Overcast
5:55 AM 45.1 °F 36.9 °F 37.4 °F 74% 29.66 in 10.0 mi SSW 21.9 mph 27.6 mph N/A   Overcast
6:15 AM 45.3 °F 37.1 °F 37.4 °F 74% 29.67 in 10.0 mi SSW 21.9 mph 28.8 mph N/A   Overcast
6:35 AM 45.0 °F 36.9 °F 37.4 °F 75% 29.67 in 10.0 mi SW 20.7 mph 28.8 mph N/A   Light Drizzle
6:55 AM 41.0 °F 33.1 °F 34.9 °F 79% 29.71 in 4.0 mi West 15.0 mph 28.8 mph N/A Rain Light Rain
7:15 AM 36.1 °F 27.3 °F 32.0 °F 85% 29.73 in 4.0 mi West 13.8 mph 21.9 mph N/A Snow Light Snow
7:35 AM 34.0 °F 25.0 °F 30.9 °F 89% 29.73 in 1.0 mi WSW 12.7 mph - N/A Snow Light Snow
7:55 AM 33.3 °F 24.1 °F 30.7 °F 90% 29.74 in 4.0 mi WSW 12.7 mph 17.3 mph N/A Snow Light Snow
8:15 AM 33.6 °F 22.9 °F 30.7 °F 89% 29.76 in 10.0 mi West 17.3 mph 24.2 mph N/A   Overcast
8:35 AM 34.5 °F 22.5 °F 29.8 °F 83% 29.77 in 10.0 mi West 23.0 mph 32.2 mph N/A   Overcast
8:55 AM 34.7 °F 22.5 °F 28.8 °F 79% 29.77 in 10.0 mi West 24.2 mph 33.4 mph N/A   Overcast
9:15 AM 34.7 °F 23.1 °F 27.9 °F 76% 29.79 in 10.0 mi West 21.9 mph 36.8 mph N/A   Overcast
9:35 AM 34.2 °F 24.0 °F 27.3 °F 76% 29.80 in 10.0 mi West 16.1 mph 26.5 mph N/A   Overcast
9:55 AM 33.8 °F 21.3 °F 27.1 °F 77% 29.81 in 10.0 mi West 24.2 mph 28.8 mph N/A   Overcast
10:15 AM 34.2 °F 22.6 °F 27.0 °F 75% 29.81 in 10.0 mi West 20.7 mph 32.2 mph N/A   Overcast
10:35 AM 33.4 °F 24.3 °F 26.4 °F 75% 29.82 in 10.0 mi West 12.7 mph 28.8 mph N/A   Overcast
10:55 AM 33.4 °F 23.1 °F 26.2 °F 75% 29.82 in 10.0 mi West 16.1 mph 25.3 mph N/A   Overcast
11:15 AM 32.9 °F 23.2 °F 26.4 °F 77% 29.82 in 10.0 mi West 13.8 mph - N/A   Overcast
11:35 AM 32.9 °F 21.6 °F 26.4 °F 77% 29.83 in 10.0 mi West 18.4 mph 26.5 mph N/A   Overcast
11:55 AM 32.9 °F 20.4 °F 25.2 °F 73% 29.83 in 10.0 mi West 23.0 mph 32.2 mph N/A   Overcast
12:15 PM 33.1 °F 20.1 °F 23.9 °F 69% 29.83 in 10.0 mi WSW 25.3 mph 31.1 mph N/A   Overcast
12:35 PM 32.9 °F 22.4 °F 24.3 °F 71% 29.83 in 10.0 mi West 16.1 mph 25.3 mph N/A   Overcast
12:55 PM 32.5 °F 23.2 °F 24.6 °F 73% 29.84 in 10.0 mi WNW 12.7 mph 25.3 mph N/A   Overcast
1:15 PM 31.8 °F 21.8 °F 23.9 °F 73% 29.84 in 10.0 mi West 13.8 mph - N/A   Overcast
1:35 PM 32.0 °F 21.2 °F 24.1 °F 73% 29.84 in 5.0 mi West 16.1 mph 21.9 mph N/A Snow Light Snow
1:55 PM 32.0 °F 20.1 °F 24.4 °F 74% 29.85 in 7.0 mi West 19.6 mph 26.5 mph N/A Snow Light Snow
2:15 PM 32.0 °F 18.4 °F 23.2 °F 70% 29.86 in 10.0 mi West 26.5 mph 33.4 mph N/A   Overcast
2:35 PM 31.8 °F 19.0 °F 21.0 °F 64% 29.87 in 10.0 mi West 23.0 mph 26.5 mph N/A   Overcast
2:55 PM 32.0 °F 19.8 °F 20.1 °F 62% 29.87 in 10.0 mi West 20.7 mph 27.6 mph N/A   Overcast
3:15 PM 32.0 °F 20.8 °F 20.7 °F 63% 29.88 in 7.0 mi West 17.3 mph 26.5 mph N/A Snow Light Snow
3:35 PM 31.5 °F 20.9 °F 21.6 °F 67% 29.89 in 4.0 mi West 15.0 mph 26.5 mph N/A Snow Light Snow
3:55 PM 31.1 °F 19.3 °F 22.8 °F 71% 29.90 in 4.0 mi West 18.4 mph - N/A Snow Light Snow
4:15 PM 31.3 °F 17.1 °F 22.1 °F 69% 29.91 in 10.0 mi West 27.6 mph 31.1 mph N/A   Overcast
4:35 PM 31.3 °F 19.5 °F 18.9 °F 60% 29.92 in 10.0 mi West 18.4 mph 31.1 mph N/A   Overcast
4:55 PM 30.7 °F 18.5 °F 18.0 °F 59% 29.93 in 10.0 mi West 19.6 mph 31.1 mph N/A   Overcast
5:15 PM 30.2 °F 18.1 °F 18.5 °F 62% 29.94 in 10.0 mi West 18.4 mph 28.8 mph N/A Snow Light Snow
5:35 PM 29.5 °F 17.6 °F 20.3 °F 69% 29.95 in 4.0 mi West 17.3 mph 28.8 mph N/A Snow Light Snow
5:55 PM 29.3 °F 17.7 °F 20.5 °F 70% 29.96 in 10.0 mi West 16.1 mph 27.6 mph N/A   Overcast
6:15 PM 29.3 °F 14.2 °F 19.4 °F 67% 29.98 in 3.0 mi West 28.8 mph 34.5 mph N/A Snow Light Snow
7:35 PM 27.7 °F 16.1 °F 19.9 °F 73% 30.01 in 10.0 mi West 15.0 mph - N/A Snow Light Snow
7:55 PM 27.5 °F 14.6 °F 20.3 °F 74% 30.01 in 10.0 mi West 18.4 mph - N/A   Overcast
8:15 PM 28.0 °F 16.5 °F 20.3 °F 73% 30.01 in 10.0 mi West 15.0 mph - N/A Snow Light Snow
8:35 PM 27.5 °F 13.9 °F 20.7 °F 75% 30.03 in 1.2 mi West 20.7 mph 29.9 mph N/A Snow Light Snow
8:55 PM 26.6 °F 13.4 °F 17.8 °F 69% 30.03 in 10.0 mi West 18.4 mph 29.9 mph N/A   Overcast
9:15 PM 26.4 °F 12.8 °F 14.2 °F 60% 30.04 in 10.0 mi West 19.6 mph 31.1 mph N/A   Overcast
9:35 PM 26.4 °F 13.2 °F 13.6 °F 59% 30.04 in 10.0 mi West 18.4 mph 32.2 mph N/A   Overcast
9:55 PM 25.9 °F 12.5 °F 13.8 °F 60% 30.05 in 10.0 mi West 18.4 mph 25.3 mph N/A   Overcast
10:15 PM 25.7 °F 12.3 °F 14.0 °F 61% 30.05 in 10.0 mi West 18.4 mph 25.3 mph N/A   Overcast
10:35 PM 25.9 °F 12.9 °F 14.2 °F 61% 30.05 in 10.0 mi West 17.3 mph - N/A   Overcast
10:55 PM 25.9 °F 8.8 °F 15.3 °F 64% 30.05 in 4.0 mi West 32.2 mph 39.1 mph N/A Snow Light Snow
11:15 PM 25.3 °F 11.0 °F 14.5 °F 64% 30.06 in 7.0 mi West 20.7 mph 31.1 mph N/A Snow Light Snow
11:35 PM 25.2 °F 10.8 °F 13.8 °F 62% 30.06 in 10.0 mi West 20.7 mph 25.3 mph N/A   Overcast
11:55 PM 25.3 °F 14.1 °F 13.6 °F 61% 30.06 in 10.0 mi West 12.7 mph 23.0 mph N/A   Overcast